Date String (YYYY-MM-DD hh:mm:ss) UTC,Instrument flags,Ambient pressure (hPa),Sample flow (lpm),Bypass flow (lpm),Sample temperature (°C),Ambient temperature (°C),ASC tube jacket temperature (°C),LED temperature (°C),Box temperature (°C),Sample RH (%),Span deviation,Mass concentration (μg/m³),Mass concentration (μg/m³),Mass concentration (μg/m³)
DateTimeUTC,F1_M11,P_M11,Q1_M11,Q2_M11,T1_M11,T2_M11,T3_M11,T4_M11,T5_M11,U1_M11,ZSPAN_M11,X2_M11,X0_M11,X1_M11
2023-05-17 06:00:00,,0833.4,5.00,0.00,29.5,27.9,00.0,37.8,31.0,23.3,0000.0,0004.98,0012.99,0003.51
2023-05-17 06:01:00,,0833.4,5.00,0.00,29.4,27.9,00.0,37.8,31.0,23.5,0000.0,0004.98,0013.33,0003.52
2023-05-17 06:02:00,,0833.4,5.00,0.00,29.5,27.9,00.0,37.8,31.0,23.4,0000.0,0005.00,0012.75,0003.53
2023-05-17 06:03:00,,0833.4,5.00,0.00,29.5,27.9,00.0,37.8,31.0,23.2,0000.0,0005.08,0013.17,0003.54
2023-05-17 06:04:00,,0833.4,5.00,0.00,29.5,27.9,00.0,37.8,31.0,23.2,0000.0,0005.24,0013.93,0003.58
2023-05-17 06:05:00,,0833.4,5.00,0.00,29.5,27.9,00.0,37.8,31.0,23.1,0000.0,0005.34,0014.20,0003.61
2023-05-17 06:06:00,,0833.4,5.00,0.00,29.5,27.9,00.0,37.8,31.1,23.1,0000.0,0005.40,0014.39,0003.62
2023-05-17 06:07:00,,0833.4,4.99,0.00,29.5,27.9,00.0,37.8,31.0,23.2,0000.0,0005.49,0015.21,0003.63
2023-05-17 06:08:00,,0833.4,5.00,0.00,29.5,28.0,00.0,37.8,31.0,23.2,0000.0,0005.48,0015.62,0003.64
2023-05-17 06:09:00,,0833.5,5.00,0.00,29.5,28.0,00.0,37.8,31.0,23.1,0000.0,0005.55,0017.11,0003.65
2023-05-17 06:10:00,,0833.4,5.00,0.00,29.5,28.0,00.0,37.8,31.1,22.9,0000.0,0005.55,0017.73,0003.66
2023-05-17 06:11:00,,0833.4,5.00,0.00,29.5,28.0,00.0,37.8,31.1,22.8,0000.0,0005.54,0017.57,0003.66
2023-05-17 06:12:00,,0833.4,5.00,0.00,29.5,28.0,00.0,37.8,31.1,23.0,0000.0,0005.61,0017.29,0003.67
2023-05-17 06:13:00,,0833.4,5.01,0.00,29.5,28.0,00.0,37.8,31.1,22.9,0000.0,0005.73,0018.03,0003.68
2023-05-17 06:14:00,,0833.4,5.01,0.00,29.5,28.0,00.0,37.8,31.1,22.9,0000.0,0005.78,0017.78,0003.68
2023-05-17 06:15:00,,0833.4,4.99,0.00,29.5,28.0,00.0,37.8,31.1,23.0,0000.0,0005.75,0017.64,0003.68
2023-05-17 06:16:00,,0833.4,5.00,0.00,29.5,28.0,00.0,37.9,31.1,22.9,0000.0,0005.72,0017.99,0003.66
2023-05-17 06:17:00,,0833.4,5.01,0.00,29.5,28.0,00.0,37.9,31.1,22.8,0000.0,0005.63,0017.57,0003.65
2023-05-17 06:18:00,,0833.4,5.01,0.00,29.5,28.0,00.0,37.9,31.1,22.9,0000.0,0005.61,0016.88,0003.65
2023-05-17 06:19:00,,0833.4,5.00,0.00,29.5,27.9,00.0,37.9,31.1,22.9,0000.0,0005.60,0016.46,0003.65
2023-05-17 06:20:00,,0833.4,4.98,0.00,29.5,27.9,00.0,37.9,31.1,23.0,0000.0,0005.57,0015.52,0003.64
2023-05-17 06:21:00,,0833.4,5.00,0.00,29.5,27.9,00.0,37.9,31.1,23.0,0000.0,0005.56,0015.06,0003.64
2023-05-17 06:22:00,,0833.4,5.01,0.00,29.5,27.9,00.0,37.9,31.1,23.1,0000.0,0005.59,0016.25,0003.65
2023-05-17 06:23:00,,0833.4,5.00,0.00,29.5,27.9,00.0,37.9,31.1,23.3,0000.0,0005.58,0016.37,0003.65
2023-05-17 06:24:00,,0833.5,5.01,0.00,29.5,27.9,00.0,37.9,31.1,23.3,0000.0,0005.52,0016.42,0003.65
2023-05-17 06:25:00,,0833.4,5.00,0.00,29.5,27.9,00.0,37.9,31.1,23.4,0000.0,0005.46,0016.51,0003.65
2023-05-17 06:26:00,,0833.4,4.99,0.00,29.5,27.9,00.0,37.9,31.1,23.3,0000.0,0005.49,0016.24,0003.66
2023-05-17 06:27:00,,0833.3,5.00,0.00,29.5,27.9,00.0,37.9,31.1,23.4,0000.0,0005.48,0015.73,0003.67
2023-05-17 06:28:00,,0833.3,5.00,0.00,29.5,27.9,00.0,37.9,31.1,23.5,0000.0,0005.53,0015.85,0003.68
2023-05-17 06:29:00,,0833.3,5.00,0.00,29.5,27.9,00.0,37.9,31.1,23.5,0000.0,0005.52,0016.53,0003.68
2023-05-17 06:30:00,,0833.3,5.00,0.00,29.5,27.9,00.0,37.9,31.1,23.6,0000.0,0005.51,0016.57,0003.70
2023-05-17 06:31:00,,0833.3,5.01,0.00,29.5,27.9,00.0,37.9,31.1,23.6,0000.0,0005.53,0016.54,0003.71
2023-05-17 06:32:00,,0833.3,5.00,0.00,29.5,27.9,00.0,37.9,31.1,23.5,0000.0,0005.55,0016.80,0003.72
2023-05-17 06:33:00,,0833.3,5.00,0.00,29.5,27.9,00.0,37.9,31.1,23.5,0000.0,0005.56,0015.80,0003.72
2023-05-17 06:34:00,,0833.4,5.00,0.00,29.5,28.0,00.0,37.9,31.1,23.4,0000.0,0005.47,0015.53,0003.71
2023-05-17 06:35:00,,0833.4,4.98,0.00,29.5,28.0,00.0,37.9,31.1,23.4,0000.0,0005.41,0014.99,0003.71
2023-05-17 06:36:00,,0833.3,5.01,0.00,29.5,28.0,00.0,37.9,31.1,23.3,0000.0,0005.35,0014.14,0003.71
2023-05-17 06:37:00,,0833.3,5.01,0.00,29.5,28.0,00.0,37.9,31.1,23.2,0000.0,0005.31,0014.72,0003.70
2023-05-17 06:38:00,,0833.3,5.00,0.00,29.5,27.9,00.0,37.9,31.1,23.2,0000.0,0005.28,0014.75,0003.70
2023-05-17 06:39:00,,0833.3,4.99,0.00,29.5,27.9,00.0,37.9,31.1,23.3,0000.0,0005.24,0014.71,0003.69
2023-05-17 06:40:00,,0833.2,5.00,0.00,29.5,27.9,00.0,37.9,31.1,23.3,0000.0,0005.24,0014.12,0003.68
2023-05-17 06:41:00,,0833.3,5.01,0.00,29.5,27.9,00.0,37.9,31.1,23.3,0000.0,0005.27,0014.65,0003.67
2023-05-17 06:42:00,,0833.2,5.00,0.00,29.5,27.9,00.0,37.9,31.1,23.3,0000.0,0005.24,0014.03,0003.67
2023-05-17 06:43:00,,0833.2,5.00,0.00,29.5,27.9,00.0,37.9,31.1,23.4,0000.0,0005.24,0013.71,0003.67
2023-05-17 06:44:00,,0833.2,5.00,0.00,29.5,27.9,00.0,37.9,31.1,23.5,0000.0,0005.22,0013.35,0003.66
2023-05-17 06:45:00,,0833.2,4.99,0.00,29.5,27.9,00.0,37.9,31.1,23.4,0000.0,0005.21,0013.79,0003.66
2023-05-17 06:46:00,,0833.1,5.01,0.00,29.5,27.9,00.0,37.9,31.1,23.3,0000.0,0005.24,0013.69,0003.67
2023-05-17 06:47:00,,0833.2,5.00,0.00,29.5,27.9,00.0,37.9,31.1,23.2,0000.0,0005.25,0013.70,0003.67
2023-05-17 06:48:00,,0833.1,5.00,0.00,29.5,27.9,00.0,37.9,31.1,23.1,0000.0,0005.22,0013.07,0003.67
2023-05-17 06:49:00,,0833.0,5.00,0.00,29.5,27.9,00.0,37.9,31.1,23.0,0000.0,0005.20,0012.51,0003.67
2023-05-17 06:50:00,,0833.0,5.00,0.00,29.5,27.9,00.0,37.9,31.0,23.0,0000.0,0005.22,0012.85,0003.67
2023-05-17 06:51:00,,0833.3,5.00,0.00,29.5,27.9,00.0,37.9,31.0,23.0,0000.0,0005.22,0012.65,0003.69
2023-05-17 06:52:00,,0833.1,4.98,0.00,29.5,27.9,00.0,37.9,31.0,22.8,0000.0,0005.16,0012.04,0003.68
2023-05-17 06:53:00,,0833.3,5.00,0.00,29.5,27.8,00.0,37.9,31.0,22.7,0000.0,0005.02,0011.41,0003.67
2023-05-17 06:54:00,,0833.0,5.01,0.00,29.5,27.8,00.0,37.9,31.0,22.6,0000.0,0004.95,0011.99,0003.65
2023-05-17 06:55:00,,0833.0,5.01,0.00,29.5,27.8,00.0,37.9,31.0,22.5,0000.0,0004.90,0012.34,0003.65
2023-05-17 06:56:00,,0833.0,5.00,0.00,29.5,27.8,00.0,37.9,31.0,22.4,0000.0,0004.88,0012.03,0003.64
2023-05-17 06:57:00,,0833.0,5.01,0.00,29.4,27.8,00.0,37.9,31.0,22.3,0000.0,0004.95,0012.07,0003.63
2023-05-17 06:58:00,,0833.2,4.99,0.00,29.4,27.8,00.0,37.9,31.0,22.2,0000.0,0004.97,0012.58,0003.63
2023-05-17 06:59:00,,0833.1,5.00,0.00,29.4,27.8,00.0,37.8,31.0,22.0,0000.0,0005.02,0013.40,0003.63
